Погода в Озамис Сити

Филиппины     8°09′04″N   123°50′26″E
темп.,
°C
ветер,
м/с
пор.,
м/с
влажн.,
%
обл.,
%
осадки,
мм/ч
давл.,
гПа
погр.,
м
10 мая, пн
пн1023:00+22юз1194100 0.1 101132
02:00+22зюз229188 0.5 100943
05:00+21з119193 0.4 101021
08:00+25ююв117931 0.6 1011450
11:00+29в216499 0.4 10091166
14:00+27в008111 5.1 1008621
17:00+24вюв119597 9.0 100945
20:00+22з1197100 18.3 101222
11 мая, вт
вт1123:00+22ю12100100 17.1 1011119
02:00+22зюз1196100 28.3 100924
05:00+22зсз1092100 0.1 100914
08:00+25всв118274 0.1 1011273
11:00+28всв226219 0.0 1010791
14:00+27св2272100 0.8 1008801
17:00+24ссв1390100 0.7 1008178
20:00+22сз1194100 1.9 101127
12 мая, ср
ср1223:00+21з1193100 0.6 101114
02:00+21зюз2191100 0.8 100920
05:00+21з119061 0.0 100913
08:00+26всв117641 0.0 1011423
11:00+28всв216522 0.4 1009987
14:00+28всв216726 1.7 1007930
17:00+25всв128739 1.1 1008270
20:00+22ссз119690 2.0 101042
13 мая, чт
чт1323:00+21сз219150 0.1 101024
02:00+21сз11915 0.1 100820
05:00+21сз119556 0.1 100921
08:00+25ссв238471 0.1 1010478
11:00+28всв32675 0.1 10091052
14:00+28св226510 0.9 1006913
17:00+25св238213 1.0 1007432
20:00+22сз229162 1.3 100955
14 мая, пт
пт1423:00+21зсз219299 1.0 100924
02:00+21сз119495 1.1 100821
05:00+21сз11955 0.0 100821
08:00+26св128140 0.0 1009471
11:00+28всв227080 0.7 10081019
14:00+28св2269100 3.9 1006945
17:00+25всв1287100 3.1 1007250
20:00+23зсз1196100 3.6 100915